Terminal Aerodrome Forecast
Issued by NWS

Home | Current Version | Previous Version | Text Only | Print | Product List | Glossary On
Versions: 1 2 3 4 5 6 7 8 9 10 11 12 13 14 15
865
FTUS42 KMLB 212359
TAFTIX
TAF
KTIX 212359Z 2200/2224 20015KT P6SM FEW080
     FM220800 19008KT P6SM SCT010 BKN035 WS015/22030KT
     FM221300 20016G26KT P6SM SCT015 BKN035
     FM222200 21018G28KT P6SM VCTS BKN035CB
      AMD NOT SKED 2202/2212=

USA.gov is the U.S. government's official web portal to all federal, state and local government web resources and services.